Data No, UTC Date,UTC Time,Latitude,Longitude,Course(deg),Temp(degC),Sal(psu),pH
711,2019/3/8,11:50,42-36.99N,141-37.11E,209,2.494,32.3938,8.27
712,2019/3/8,11:51,42-36.76N,141-36.93E,207,2.383,32.3934,8.28
713,2019/3/8,11:52,42-36.49N,141-36.84E,185,2.311,32.4304,8.28
714,2019/3/8,11:53,42-36.22N,141-36.85E,178,2.289,32.4603,8.29
715,2019/3/8,11:54,42-35.90N,141-36.86E,178,2.207,32.4992,8.29
716,2019/3/8,11:55,42-35.63N,141-36.87E,178,2.076,32.51,8.3
717,2019/3/8,11:56,42-35.34N,141-36.88E,178,2.003,32.5147,8.3
718,2019/3/8,11:57,42-35.05N,141-36.88E,179,1.969,32.5329,8.3
719,2019/3/8,11:58,42-34.75N,141-36.89E,179,1.911,32.5441,8.3
720,2019/3/8,11:59,42-34.46N,141-36.90E,179,1.776,32.5594,8.31
721,2019/3/8,12:00,42-34.16N,141-36.90E,179,1.665,32.5756,8.3
722,2019/3/8,12:01,42-33.86N,141-36.91E,179,1.691,32.5854,8.29
723,2019/3/8,12:02,42-33.57N,141-36.92E,179,1.731,32.5956,8.29
724,2019/3/8,12:03,42-33.27N,141-36.92E,179,1.783,32.5954,8.27
725,2019/3/8,12:04,42-32.99N,141-36.93E,178,1.788,32.5955,8.27
726,2019/3/8,12:05,42-32.70N,141-36.94E,178,1.774,32.5883,8.27
727,2019/3/8,12:06,42-32.40N,141-36.94E,179,1.84,32.5783,8.27
728,2019/3/8,12:07,42-32.08N,141-36.95E,179,1.82,32.5595,8.27
729,2019/3/8,12:08,42-31.81N,141-36.96E,179,1.788,32.5486,8.27
730,2019/3/8,12:09,42-31.52N,141-36.96E,179,1.867,32.545,8.28
731,2019/3/8,12:10,42-31.24N,141-36.97E,179,1.881,32.5423,8.29
732,2019/3/8,12:11,42-30.92N,141-36.97E,181,1.783,32.5372,8.29
733,2019/3/8,12:12,42-30.65N,141-36.94E,186,1.687,32.5379,8.29
734,2019/3/8,12:13,42-30.37N,141-36.87E,192,1.672,32.5431,8.3
735,2019/3/8,12:14,42-30.08N,141-36.77E,193,1.683,32.5501,8.3
736,2019/3/8,12:15,42-29.79N,141-36.67E,194,1.641,32.5568,8.3
737,2019/3/8,12:16,42-29.51N,141-36.58E,192,1.63,32.5673,8.3
738,2019/3/8,12:17,42-29.22N,141-36.51E,190,1.551,32.5748,8.29
739,2019/3/8,12:18,42-28.91N,141-36.44E,189,1.433,32.5824,8.29
740,2019/3/8,12:19,42-28.64N,141-36.38E,188,1.347,32.5906,8.29
741,2019/3/8,12:20,42-28.35N,141-36.32E,188,1.354,32.5961,8.28
742,2019/3/8,12:21,42-28.07N,141-36.25E,189,1.321,32.5964,8.25
743,2019/3/8,12:22,42-27.78N,141-36.19E,189,1.328,32.5958,8.24
744,2019/3/8,12:23,42-27.49N,141-36.13E,189,1.252,32.5916,8.21
745,2019/3/8,12:24,42-27.20N,141-36.06E,189,1.22,32.5712,8.19
746,2019/3/8,12:25,42-26.92N,141-36.00E,189,1.225,32.5567,8.18
747,2019/3/8,12:26,42-26.62N,141-35.93E,189,1.178,32.5517,8.19
748,2019/3/8,12:27,42-26.33N,141-35.86E,191,1.181,32.5502,8.18
749,2019/3/8,12:28,42-26.06N,141-35.78E,191,1.098,32.5494,8.19
750,2019/3/8,12:29,42-25.77N,141-35.69E,192,0.948,32.5459,8.19
751,2019/3/8,12:30,42-25.48N,141-35.61E,192,0.856,32.5413,8.18
752,2019/3/8,12:31,42-25.19N,141-35.52E,192,0.827,32.5323,8.18
753,2019/3/8,12:32,42-24.91N,141-35.44E,192,0.733,32.5209,8.16
754,2019/3/8,12:33,42-24.57N,141-35.33E,191,0.715,32.5136,8.14
755,2019/3/8,12:34,42-24.34N,141-35.28E,189,0.694,32.5098,8.12
756,2019/3/8,12:35,42-24.00N,141-35.21E,186,0.694,32.5043,8.1
757,2019/3/8,12:36,42-23.75N,141-35.18E,184,0.678,32.502,8.1
758,2019/3/8,12:37,42-23.45N,141-35.17E,181,0.706,32.4996,8.08
759,2019/3/8,12:38,42-23.18N,141-35.17E,180,0.677,32.4982,8.08
760,2019/3/8,12:39,42-22.88N,141-35.16E,180,0.644,32.4972,8.08
761,2019/3/8,12:40,42-22.58N,141-35.16E,180,0.643,32.4903,8.08
762,2019/3/8,12:41,42-22.29N,141-35.16E,180,0.631,32.484,8.07
763,2019/3/8,12:42,42-21.99N,141-35.15E,180,0.684,32.4803,8.08
764,2019/3/8,12:43,42-21.71N,141-35.15E,180,0.702,32.4789,8.08
765,2019/3/8,12:44,42-21.41N,141-35.14E,180,0.697,32.4788,8.08
766,2019/3/8,12:45,42-21.11N,141-35.14E,180,0.695,32.482,8.08
767,2019/3/8,12:46,42-20.79N,141-35.13E,180,0.718,32.4882,8.08
768,2019/3/8,12:47,42-20.51N,141-35.13E,180,0.75,32.4961,8.09
769,2019/3/8,12:48,42-20.22N,141-35.13E,180,0.812,32.5029,8.1
770,2019/3/8,12:49,42-19.93N,141-35.12E,180,0.868,32.5087,8.08
771,2019/3/8,12:50,42-19.62N,141-35.12E,180,0.92,32.5137,8.08
772,2019/3/8,12:51,42-19.32N,141-35.12E,179,0.974,32.5214,8.1
773,2019/3/8,12:52,42-19.03N,141-35.13E,179,0.996,32.5389,8.09
774,2019/3/8,12:53,42-18.73N,141-35.13E,179,1.016,32.5461,8.1
775,2019/3/8,12:54,42-18.43N,141-35.13E,179,0.982,32.552,8.1
776,2019/3/8,12:55,42-18.12N,141-35.14E,179,0.923,32.5508,8.08
777,2019/3/8,12:56,42-17.83N,141-35.14E,179,0.855,32.5447,8.08
778,2019/3/8,12:57,42-17.53N,141-35.14E,179,0.809,32.5421,8.1
779,2019/3/8,12:58,42-17.22N,141-35.15E,179,0.778,32.5407,8.08
780,2019/3/8,12:59,42-16.89N,141-35.15E,179,0.774,32.5368,8.08
781,2019/3/8,13:00,42-16.62N,141-35.16E,179,0.795,32.5348,8.09
782,2019/3/8,13:01,42-16.29N,141-35.16E,179,0.841,32.5353,8.09
783,2019/3/8,13:02,42-16.01N,141-35.16E,179,0.872,32.5377,8.07
784,2019/3/8,13:03,42-15.71N,141-35.16E,179,0.91,32.5432,8.08
785,2019/3/8,13:04,42-15.40N,141-35.17E,179,0.937,32.5496,8.07
786,2019/3/8,13:05,42-15.10N,141-35.17E,179,0.98,32.5537,8.07
787,2019/3/8,13:06,42-14.80N,141-35.17E,179,1.039,32.5603,8.08
788,2019/3/8,13:07,42-14.49N,141-35.17E,179,1.12,32.5634,8.08
789,2019/3/8,13:08,42-14.19N,141-35.18E,179,1.17,32.5687,8.07
790,2019/3/8,13:09,42-13.90N,141-35.18E,179,1.207,32.5767,8.08
791,2019/3/8,13:10,42-13.58N,141-35.18E,179,1.225,32.5879,8.07
792,2019/3/8,13:11,42-13.29N,141-35.19E,179,1.149,32.5966,8.07
793,2019/3/8,13:12,42-12.98N,141-35.19E,179,1.133,32.6071,8.08
794,2019/3/8,13:13,42-12.68N,141-35.19E,179,1.131,32.6092,8.09
795,2019/3/8,13:14,42-12.38N,141-35.19E,180,1.145,32.6096,8.08
796,2019/3/8,13:15,42-12.08N,141-35.19E,180,1.163,32.61,8.07
797,2019/3/8,13:16,42-11.77N,141-35.19E,179,1.173,32.6133,8.07
798,2019/3/8,13:17,42-11.46N,141-35.19E,180,1.179,32.616,8.07
799,2019/3/8,13:18,42-11.17N,141-35.19E,179,1.196,32.6184,8.06
800,2019/3/8,13:19,42-10.86N,141-35.19E,180,1.212,32.6206,8.07
801,2019/3/8,13:20,42-10.57N,141-35.19E,180,1.223,32.6241,8.07
802,2019/3/8,13:21,42-10.27N,141-35.18E,180,1.246,32.6278,8.07
803,2019/3/8,13:22,42-09.97N,141-35.18E,180,1.299,32.6299,8.07
804,2019/3/8,13:23,42-09.67N,141-35.18E,180,1.354,32.6359,8.06
805,2019/3/8,13:24,42-09.34N,141-35.17E,180,1.403,32.6449,8.06
806,2019/3/8,13:25,42-09.07N,141-35.16E,180,1.429,32.6521,8.07
807,2019/3/8,13:26,42-08.75N,141-35.16E,180,1.461,32.6567,8.07
808,2019/3/8,13:27,42-08.48N,141-35.15E,180,1.517,32.661,8.06
809,2019/3/8,13:28,42-08.18N,141-35.15E,180,1.61,32.6681,8.07
810,2019/3/8,13:29,42-07.87N,141-35.15E,180,1.346,32.6788,8.06
811,2019/3/8,13:30,42-07.54N,141-35.14E,181,1.19,32.6787,8.07
812,2019/3/8,13:31,42-07.28N,141-35.13E,180,1.15,32.6599,8.07
813,2019/3/8,13:32,42-07.00N,141-35.13E,180,1.139,32.6452,8.08
814,2019/3/8,13:33,42-06.70N,141-35.12E,180,1.147,32.6386,8.07
815,2019/3/8,13:34,42-06.40N,141-35.12E,180,1.162,32.6366,8.07
816,2019/3/8,13:35,42-06.10N,141-35.12E,180,1.17,32.638,8.07
817,2019/3/8,13:36,42-05.79N,141-35.11E,180,1.179,32.6386,8.06
818,2019/3/8,13:37,42-05.50N,141-35.11E,180,1.188,32.6388,8.06
819,2019/3/8,13:38,42-05.22N,141-35.11E,180,1.2,32.6383,8.05
820,2019/3/8,13:39,42-04.91N,141-35.10E,180,1.202,32.6374,8.05
821,2019/3/8,13:40,42-04.62N,141-35.10E,180,1.237,32.637,8.04
822,2019/3/8,13:41,42-04.32N,141-35.09E,180,1.246,32.6375,8.04
823,2019/3/8,13:42,42-04.02N,141-35.09E,180,1.277,32.6376,8.04
824,2019/3/8,13:43,42-03.73N,141-35.09E,180,1.274,32.6375,8.05
825,2019/3/8,13:44,42-03.42N,141-35.08E,180,1.259,32.6357,8.04
826,2019/3/8,13:45,42-03.12N,141-35.08E,180,1.221,32.6324,8.05
827,2019/3/8,13:46,42-02.83N,141-35.07E,180,1.183,32.6271,8.05
828,2019/3/8,13:47,42-02.54N,141-35.07E,181,1.162,32.6214,8.05
829,2019/3/8,13:48,42-02.24N,141-35.06E,180,1.158,32.617,8.05
830,2019/3/8,13:49,42-01.93N,141-35.06E,180,1.168,32.6143,8.05
831,2019/3/8,13:50,42-01.65N,141-35.06E,180,1.174,32.6125,8.06
832,2019/3/8,13:51,42-01.31N,141-35.05E,180,1.18,32.613,8.05
833,2019/3/8,13:52,42-01.04N,141-35.05E,180,1.192,32.6134,8.06
834,2019/3/8,13:53,42-00.75N,141-35.04E,180,1.21,32.6153,8.06
835,2019/3/8,13:54,42-00.42N,141-35.04E,180,1.23,32.6191,8.06
836,2019/3/8,13:55,42-00.12N,141-35.04E,180,1.254,32.6228,8.06
837,2019/3/8,13:56,41-59.84N,141-35.03E,180,1.275,32.6282,8.05
838,2019/3/8,13:57,41-59.54N,141-35.03E,180,1.32,32.637,8.05
839,2019/3/8,13:58,41-59.24N,141-35.03E,180,1.408,32.6441,8.05
840,2019/3/8,13:59,41-58.91N,141-35.03E,179,1.464,32.6597,8.05
841,2019/3/8,14:00,41-58.63N,141-35.03E,179,1.495,32.668,8.04
842,2019/3/8,14:01,41-58.29N,141-35.03E,180,1.531,32.6759,8.04
843,2019/3/8,14:02,41-58.02N,141-35.03E,179,1.561,32.6817,8.04
844,2019/3/8,14:03,41-57.74N,141-35.03E,179,1.581,32.6871,8.04
845,2019/3/8,14:04,41-57.42N,141-35.04E,179,1.603,32.6925,8.04
846,2019/3/8,14:05,41-57.13N,141-35.04E,179,1.636,32.6973,8.04
847,2019/3/8,14:06,41-56.84N,141-35.04E,179,1.643,32.7028,8.05
848,2019/3/8,14:07,41-56.55N,141-35.04E,180,1.641,32.7073,8.05
849,2019/3/8,14:08,41-56.26N,141-35.04E,180,1.638,32.7107,8.05
850,2019/3/8,14:09,41-55.96N,141-35.04E,179,1.632,32.712,8.05
851,2019/3/8,14:10,41-55.66N,141-35.04E,179,1.654,32.715,8.05
852,2019/3/8,14:11,41-55.36N,141-35.05E,178,1.718,32.7195,8.05
853,2019/3/8,14:12,41-55.07N,141-35.06E,178,1.829,32.7276,8.05
854,2019/3/8,14:13,41-54.78N,141-35.07E,178,2.097,32.7409,8.05
855,2019/3/8,14:14,41-54.47N,141-35.07E,178,2.342,32.7686,8.05
856,2019/3/8,14:15,41-54.17N,141-35.08E,178,2.336,32.8108,8.04
857,2019/3/8,14:16,41-53.89N,141-35.09E,178,2.321,32.829,8.04
858,2019/3/8,14:17,41-53.58N,141-35.10E,178,2.375,32.83,8.05
859,2019/3/8,14:18,41-53.30N,141-35.11E,178,2.466,32.8348,8.04
860,2019/3/8,14:19,41-53.01N,141-35.12E,178,2.616,32.8469,8.06
861,2019/3/8,14:20,41-52.71N,141-35.13E,178,2.735,32.8722,8.05
862,2019/3/8,14:21,41-52.40N,141-35.14E,178,2.621,32.9012,8.06
863,2019/3/8,14:22,41-52.12N,141-35.15E,178,2.59,32.9047,8.05
864,2019/3/8,14:23,41-51.84N,141-35.16E,178,2.468,32.8956,8.06
865,2019/3/8,14:24,41-51.54N,141-35.17E,178,2.382,32.883,8.06
866,2019/3/8,14:25,41-51.26N,141-35.18E,178,2.276,32.8671,8.06
867,2019/3/8,14:26,41-50.96N,141-35.19E,178,2.062,32.8525,8.06
868,2019/3/8,14:27,41-50.67N,141-35.21E,177,1.938,32.8318,8.06
869,2019/3/8,14:28,41-50.38N,141-35.22E,177,1.875,32.8083,8.06
870,2019/3/8,14:29,41-50.07N,141-35.23E,178,1.842,32.7876,8.06
871,2019/3/8,14:30,41-49.77N,141-35.24E,178,1.829,32.776,8.05
872,2019/3/8,14:31,41-49.50N,141-35.25E,178,1.821,32.7677,8.05
873,2019/3/8,14:32,41-49.19N,141-35.26E,178,1.815,32.7614,8.05
874,2019/3/8,14:33,41-48.90N,141-35.27E,179,1.802,32.7583,8.05
875,2019/3/8,14:34,41-48.61N,141-35.27E,179,1.799,32.7587,8.05
876,2019/3/8,14:35,41-48.31N,141-35.28E,179,1.801,32.7591,8.05
877,2019/3/8,14:36,41-48.01N,141-35.28E,179,1.804,32.7603,8.04
878,2019/3/8,14:37,41-47.71N,141-35.29E,179,1.808,32.7633,8.04
879,2019/3/8,14:38,41-47.42N,141-35.29E,179,1.813,32.7663,8.04
880,2019/3/8,14:39,41-47.10N,141-35.30E,179,1.856,32.7753,8.04
881,2019/3/8,14:40,41-46.82N,141-35.30E,179,1.91,32.7852,8.04
882,2019/3/8,14:41,41-46.52N,141-35.30E,180,1.938,32.7982,8.04
883,2019/3/8,14:42,41-46.22N,141-35.30E,179,1.973,32.8097,8.04
884,2019/3/8,14:43,41-45.93N,141-35.30E,180,2.051,32.8153,8.04
885,2019/3/8,14:44,41-45.63N,141-35.29E,180,2.119,32.8213,8.04
886,2019/3/8,14:45,41-45.31N,141-35.29E,180,2.27,32.833,8.03
887,2019/3/8,14:46,41-45.02N,141-35.29E,180,2.556,32.8384,8.02
888,2019/3/8,14:47,41-44.72N,141-35.29E,180,3.014,32.871,8.03
889,2019/3/8,14:48,41-44.43N,141-35.28E,180,4.163,32.9479,8.03
890,2019/3/8,14:49,41-44.13N,141-35.28E,180,6.584,33.0701,8.03
891,2019/3/8,14:50,41-43.84N,141-35.28E,180,6.429,33.492,8.02
892,2019/3/8,14:51,41-43.54N,141-35.27E,180,6.353,33.616,8.01
893,2019/3/8,14:52,41-43.25N,141-35.27E,180,6.194,33.6632,8.02
894,2019/3/8,14:53,41-42.96N,141-35.26E,180,6.33,33.6766,8.04
895,2019/3/8,14:54,41-42.66N,141-35.27E,178,6.818,33.6898,8.06
896,2019/3/8,14:55,41-42.31N,141-35.29E,175,7.183,33.7735,8.06
897,2019/3/8,14:56,41-42.06N,141-35.32E,173,7.235,33.8614,8.07
898,2019/3/8,14:57,41-41.76N,141-35.37E,173,7.241,33.9204,8.08
899,2019/3/8,14:58,41-41.45N,141-35.41E,174,7.168,33.9415,8.08
900,2019/3/8,14:59,41-41.14N,141-35.45E,174,7.034,33.9394,8.09
901,2019/3/8,15:00,41-40.84N,141-35.50E,173,7.05,33.9161,8.1
902,2019/3/8,15:01,41-40.53N,141-35.55E,171,7.016,33.8971,8.1
903,2019/3/8,15:02,41-40.21N,141-35.62E,172,6.757,33.8792,8.1
904,2019/3/8,15:03,41-39.91N,141-35.67E,171,5.907,33.8222,8.11
905,2019/3/8,15:04,41-39.61N,141-35.72E,172,5.473,33.7209,8.11
906,2019/3/8,15:05,41-39.30N,141-35.78E,172,5.13,33.5684,8.11
907,2019/3/8,15:06,41-39.00N,141-35.82E,174,4.872,33.4903,8.11
908,2019/3/8,15:07,41-38.69N,141-35.86E,175,4.725,33.4221,8.1
909,2019/3/8,15:08,41-38.36N,141-35.89E,176,4.793,33.3786,8.1
910,2019/3/8,15:09,41-38.05N,141-35.91E,176,5.72,33.3502,8.08
911,2019/3/8,15:10,41-37.75N,141-35.93E,176,5.37,33.4367,8.07
912,2019/3/8,15:11,41-37.43N,141-35.96E,176,5.635,33.4585,8.06
913,2019/3/8,15:12,41-37.11N,141-35.98E,177,6.205,33.4523,8.06
914,2019/3/8,15:13,41-36.80N,141-35.99E,177,6.058,33.5221,8.06
915,2019/3/8,15:14,41-36.49N,141-36.01E,177,5.777,33.5798,8.06
916,2019/3/8,15:15,41-36.16N,141-36.03E,177,5.724,33.5257,8.05
917,2019/3/8,15:16,41-35.81N,141-36.05E,176,5.397,33.5202,8.06
918,2019/3/8,15:17,41-35.52N,141-36.08E,176,7.153,33.4783,8.07
919,2019/3/8,15:18,41-35.20N,141-36.10E,177,7.158,33.676,8.07
920,2019/3/8,15:19,41-34.87N,141-36.12E,178,7.458,33.7395,8.07
921,2019/3/8,15:20,41-34.56N,141-36.13E,177,7.448,33.8179,8.07
922,2019/3/8,15:21,41-34.23N,141-36.14E,178,7.508,33.8645,8.07
923,2019/3/8,15:22,41-33.92N,141-36.16E,177,7.463,33.879,8.07
924,2019/3/8,15:23,41-33.56N,141-36.18E,176,7.554,33.8871,8.09
925,2019/3/8,15:24,41-33.28N,141-36.20E,177,7.613,33.8948,8.08
926,2019/3/8,15:25,41-32.96N,141-36.22E,177,7.641,33.9023,8.1
927,2019/3/8,15:26,41-32.64N,141-36.23E,178,7.682,33.9143,8.1
928,2019/3/8,15:27,41-32.31N,141-36.24E,178,7.704,33.9137,8.09
929,2019/3/8,15:28,41-31.98N,141-36.25E,179,7.715,33.9263,8.09
930,2019/3/8,15:29,41-31.67N,141-36.26E,178,7.705,33.9292,8.1
931,2019/3/8,15:30,41-31.35N,141-36.27E,178,7.75,33.9273,8.1
932,2019/3/8,15:31,41-31.02N,141-36.28E,178,8.003,33.9265,8.09
933,2019/3/8,15:32,41-30.70N,141-36.29E,178,---,33.9464,8.09
934,2019/3/8,15:33,41-30.38N,141-36.30E,178,8.206,33.98,8.1
935,2019/3/8,15:34,41-30.03N,141-36.31E,179,8.212,33.9984,8.1
936,2019/3/8,15:35,41-29.72N,141-36.31E,179,8.192,34.0042,8.1
937,2019/3/8,15:36,41-29.41N,141-36.31E,179,8.169,34.0078,8.1
938,2019/3/8,15:37,41-29.09N,141-36.31E,178,8.143,34.008,8.1
939,2019/3/8,15:38,41-28.76N,141-36.32E,179,8.194,34.0079,8.11
940,2019/3/8,15:39,41-28.44N,141-36.33E,178,8.236,34.0099,8.11
941,2019/3/8,15:40,41-28.12N,141-36.34E,178,8.272,34.0113,8.1
942,2019/3/8,15:41,41-27.77N,141-36.36E,177,8.312,34.0152,8.1
943,2019/3/8,15:42,41-27.48N,141-36.37E,179,8.399,34.0167,8.1
944,2019/3/8,15:43,41-27.15N,141-36.37E,179,8.455,34.0173,8.1
945,2019/3/8,15:44,41-26.83N,141-36.37E,180,8.467,34.0175,8.1
946,2019/3/8,15:45,41-26.51N,141-36.37E,179,8.475,34.0184,8.1
947,2019/3/8,15:46,41-26.19N,141-36.38E,178,8.478,34.0197,8.11
948,2019/3/8,15:47,41-25.86N,141-36.39E,179,8.478,34.0203,8.1
949,2019/3/8,15:48,41-25.54N,141-36.39E,179,8.495,34.0202,8.11
950,2019/3/8,15:49,41-25.22N,141-36.40E,179,8.502,34.0209,8.11
951,2019/3/8,15:50,41-24.90N,141-36.41E,177,8.482,34.0209,8.11
952,2019/3/8,15:51,41-24.57N,141-36.44E,175,8.466,34.0211,8.1
953,2019/3/8,15:52,41-24.26N,141-36.48E,174,8.462,34.0218,8.1
954,2019/3/8,15:53,41-23.95N,141-36.51E,174,8.439,34.0219,8.1
955,2019/3/8,15:54,41-23.62N,141-36.55E,174,8.423,34.0219,8.11
956,2019/3/8,15:55,41-23.31N,141-36.59E,173,---,34.0218,8.11
957,2019/3/8,15:56,41-22.99N,141-36.65E,172,8.416,34.0206,8.11
958,2019/3/8,15:57,41-22.67N,141-36.70E,172,8.41,34.0206,8.11
959,2019/3/8,15:58,41-22.35N,141-36.77E,170,8.375,34.02,8.11
960,2019/3/8,15:59,41-22.03N,141-36.83E,172,7.462,34.0194,8.11
961,2019/3/8,16:00,41-21.71N,141-36.88E,172,5.242,34.0102,8.11
962,2019/3/8,16:01,41-21.38N,141-36.95E,171,4.927,33.6572,8.11
963,2019/3/8,16:02,41-21.05N,141-37.01E,173,4.631,33.4474,8.13
964,2019/3/8,16:03,41-20.75N,141-37.05E,172,3.707,33.3792,8.11
965,2019/3/8,16:04,41-20.44N,141-37.11E,172,2.904,33.2183,8.1
966,2019/3/8,16:05,41-20.12N,141-37.17E,171,2.602,33.1281,8.1
967,2019/3/8,16:06,41-19.81N,141-37.23E,171,2.455,32.9985,8.08
968,2019/3/8,16:07,41-19.51N,141-37.28E,172,2.391,32.9356,8.08
969,2019/3/8,16:08,41-19.20N,141-37.34E,172,2.403,32.9072,8.08
970,2019/3/8,16:09,41-18.88N,141-37.40E,171,2.513,32.8995,8.07
971,2019/3/8,16:10,41-18.56N,141-37.46E,171,2.74,32.9076,8.06
972,2019/3/8,16:11,41-18.27N,141-37.52E,171,3.081,32.9269,8.06
973,2019/3/8,16:12,41-17.95N,141-37.58E,171,3.201,32.9846,8.05
974,2019/3/8,16:13,41-17.65N,141-37.64E,171,3.177,33.023,8.05
975,2019/3/8,16:14,41-17.33N,141-37.70E,171,3.066,33.0437,8.05
976,2019/3/8,16:15,41-17.02N,141-37.76E,170,3.214,33.0253,8.04
977,2019/3/8,16:16,41-16.71N,141-37.82E,171,3.476,33.0267,8.05
978,2019/3/8,16:17,41-16.37N,141-37.89E,171,3.746,33.0723,8.05
979,2019/3/8,16:18,41-16.07N,141-37.95E,171,3.732,33.132,8.05
980,2019/3/8,16:19,41-15.77N,141-38.01E,169,3.952,33.1399,8.05
981,2019/3/8,16:20,41-15.45N,141-38.10E,168,3.986,33.16,8.05
982,2019/3/8,16:21,41-15.17N,141-38.17E,168,4.028,33.17,8.05
983,2019/3/8,16:22,41-14.85N,141-38.25E,168,3.913,33.2046,8.05
984,2019/3/8,16:23,41-14.55N,141-38.33E,168,4.268,33.186,8.04
985,2019/3/8,16:24,41-14.24N,141-38.42E,167,4.601,33.2135,8.05
986,2019/3/8,16:25,41-13.93N,141-38.50E,168,4.721,33.2864,8.04
987,2019/3/8,16:26,41-13.63N,141-38.59E,167,4.651,33.3132,8.04
988,2019/3/8,16:27,41-13.32N,141-38.69E,165,4.576,33.3524,8.04
989,2019/3/8,16:28,41-13.03N,141-38.79E,164,5.049,33.3278,8.05
990,2019/3/8,16:29,41-12.71N,141-38.90E,165,5.063,33.379,8.05
991,2019/3/8,16:30,41-12.42N,141-39.00E,166,4.332,33.4264,8.05
992,2019/3/8,16:31,41-12.14N,141-39.09E,165,2.803,33.3874,8.05
993,2019/3/8,16:32,41-11.85N,141-39.19E,165,2.112,33.204,8.06
994,2019/3/8,16:33,41-11.56N,141-39.28E,166,1.955,32.959,8.07
995,2019/3/8,16:34,41-11.28N,141-39.38E,166,1.919,32.8487,8.05
996,2019/3/8,16:35,41-10.98N,141-39.47E,166,1.907,32.8124,8.05
997,2019/3/8,16:36,41-10.69N,141-39.56E,166,1.884,32.7958,8.04
998,2019/3/8,16:37,41-10.39N,141-39.65E,166,1.871,32.7848,8.03
999,2019/3/8,16:38,41-10.10N,141-39.75E,166,1.831,32.7763,8.02
1000,2019/3/8,16:39,41-09.80N,141-39.84E,166,1.805,32.7638,8.02
1001,2019/3/8,16:40,41-09.51N,141-39.93E,166,1.796,32.758,8.02
1002,2019/3/8,16:41,41-09.21N,141-40.02E,167,1.817,32.7511,8.03
1003,2019/3/8,16:42,41-08.92N,141-40.11E,166,1.869,32.7531,8.04
1004,2019/3/8,16:43,41-08.62N,141-40.20E,167,2.053,32.7631,8.04
1005,2019/3/8,16:44,41-08.32N,141-40.29E,167,2.291,32.7917,8.02
1006,2019/3/8,16:45,41-08.02N,141-40.38E,167,2.354,32.8231,8.04
1007,2019/3/8,16:46,41-07.69N,141-40.48E,167,2.374,32.8602,8.02
1008,2019/3/8,16:47,41-07.44N,141-40.56E,167,2.366,32.8706,8.02
1009,2019/3/8,16:48,41-07.13N,141-40.65E,166,2.335,32.876,8.02
1010,2019/3/8,16:49,41-06.84N,141-40.74E,166,2.302,32.8742,8.01
1011,2019/3/8,16:50,41-06.55N,141-40.82E,167,2.274,32.8712,8.01
1012,2019/3/8,16:51,41-06.25N,141-40.91E,167,---,32.8674,8.02
1013,2019/3/8,16:52,41-05.97N,141-40.99E,167,2.195,32.8642,8.02
1014,2019/3/8,16:53,41-05.67N,141-41.07E,168,2.108,32.8605,8.02
1015,2019/3/8,16:54,41-05.36N,141-41.16E,167,2.045,32.8537,8.02
1016,2019/3/8,16:55,41-05.08N,141-41.24E,167,1.937,32.8483,8.02
1017,2019/3/8,16:56,41-04.78N,141-41.32E,168,1.809,32.8422,8.01
1018,2019/3/8,16:57,41-04.47N,141-41.41E,167,1.741,32.8259,8.01
1019,2019/3/8,16:58,41-04.18N,141-41.49E,168,1.701,32.8056,8.01
1020,2019/3/8,16:59,41-03.88N,141-41.57E,167,1.619,32.7887,8.01
1021,2019/3/8,17:00,41-03.58N,141-41.66E,167,1.628,32.7718,8.01
1022,2019/3/8,17:01,41-03.24N,141-41.76E,167,1.608,32.7537,8.01
1023,2019/3/8,17:02,41-02.97N,141-41.85E,166,1.81,32.7428,8.01
1024,2019/3/8,17:03,41-02.66N,141-41.94E,166,---,32.7526,8.01
1025,2019/3/8,17:04,41-02.35N,141-42.04E,166,2.014,32.8104,8.01
1026,2019/3/8,17:05,41-02.06N,141-42.13E,166,1.931,32.8246,8.01
1027,2019/3/8,17:06,41-01.72N,141-42.24E,166,2.057,32.8204,8.01
1028,2019/3/8,17:07,41-01.45N,141-42.32E,167,2.239,32.821,8.01
1029,2019/3/8,17:08,41-01.14N,141-42.41E,166,2.525,32.8489,8.01
1030,2019/3/8,17:09,41-00.84N,141-42.50E,166,2.569,32.8879,8.01
1031,2019/3/8,17:10,41-00.49N,141-42.62E,166,2.749,32.9182,8
1032,2019/3/8,17:11,41-00.23N,141-42.70E,166,2.858,32.9276,8.01
1033,2019/3/8,17:12,40-59.92N,141-42.80E,165,2.832,32.9652,8.01
1034,2019/3/8,17:13,40-59.62N,141-42.91E,164,2.715,32.9766,8.01
1035,2019/3/8,17:14,40-59.31N,141-43.02E,164,2.849,32.9714,8.01
1036,2019/3/8,17:15,40-59.00N,141-43.12E,165,2.912,32.9687,8.01
1037,2019/3/8,17:16,40-58.70N,141-43.23E,164,2.755,32.99,8.01
1038,2019/3/8,17:17,40-58.39N,141-43.35E,163,2.587,32.9802,8.01
1039,2019/3/8,17:18,40-58.09N,141-43.46E,164,2.495,32.9601,8.01
1040,2019/3/8,17:19,40-57.78N,141-43.56E,165,2.517,32.9299,8.01
1041,2019/3/8,17:20,40-57.45N,141-43.67E,166,2.525,32.9173,8.01
1042,2019/3/8,17:21,40-57.17N,141-43.76E,166,2.55,32.9114,8.01
1043,2019/3/8,17:22,40-56.86N,141-43.86E,166,2.546,32.9144,8.01
1044,2019/3/8,17:23,40-56.56N,141-43.95E,166,2.568,32.9157,8.01
1045,2019/3/8,17:24,40-56.24N,141-44.06E,166,2.584,32.9223,8.01
1046,2019/3/8,17:25,40-55.94N,141-44.15E,166,2.576,32.9328,8.01
1047,2019/3/8,17:26,40-55.64N,141-44.25E,166,2.632,32.9334,8.01
1048,2019/3/8,17:27,40-55.32N,141-44.35E,166,2.71,32.9379,8.01
1049,2019/3/8,17:28,40-55.02N,141-44.45E,166,3.671,32.9575,8.01
1050,2019/3/8,17:29,40-54.71N,141-44.54E,167,4.305,33.0847,8.01
1051,2019/3/8,17:30,40-54.42N,141-44.62E,167,4.178,33.2139,8.01
1052,2019/3/8,17:33,40-53.51N,141-44.88E,167,3.701,33.2332,8.01
1053,2019/3/8,17:34,40-53.22N,141-44.97E,167,3.453,33.1922,8.01
1054,2019/3/8,17:35,40-52.93N,141-45.06E,167,3.295,33.1477,8.02
1055,2019/3/8,17:36,40-52.63N,141-45.14E,167,3.19,33.1043,8.02
1056,2019/3/8,17:37,40-52.34N,141-45.23E,167,3.158,33.0791,8.01
1057,2019/3/8,17:38,40-52.03N,141-45.31E,168,3.086,33.0648,8.01
1058,2019/3/8,17:39,40-51.75N,141-45.39E,168,3.16,33.054,8.01
1059,2019/3/8,17:40,40-51.46N,141-45.47E,168,3.344,33.0541,8.01
1060,2019/3/8,17:41,40-51.15N,141-45.55E,167,3.786,33.0759,8.01
1061,2019/3/8,17:42,40-50.86N,141-45.64E,166,4.237,33.1212,8.01
1062,2019/3/8,17:43,40-50.58N,141-45.73E,166,4.389,33.2132,8.01
1063,2019/3/8,17:44,40-50.28N,141-45.82E,167,4.312,33.2675,8.01
1064,2019/3/8,17:45,40-49.99N,141-45.90E,168,4.218,33.2989,8.01
1065,2019/3/8,17:46,40-49.66N,141-45.99E,167,4.103,33.2911,8.01
1066,2019/3/8,17:47,40-49.40N,141-46.06E,167,3.997,33.2798,8.01
1067,2019/3/8,17:48,40-49.10N,141-46.15E,167,3.907,33.2626,8.01
1068,2019/3/8,17:49,40-48.80N,141-46.23E,167,3.771,33.2467,8.01
1069,2019/3/8,17:50,40-48.51N,141-46.31E,167,3.613,33.2259,8
1070,2019/3/8,17:51,40-48.21N,141-46.39E,168,3.551,33.2007,8
1071,2019/3/8,17:52,40-47.91N,141-46.47E,168,3.459,33.1788,8
1072,2019/3/8,17:53,40-47.62N,141-46.55E,168,3.285,33.1619,8
1073,2019/3/8,17:54,40-47.31N,141-46.64E,167,3.065,33.1408,7.99
1074,2019/3/8,17:55,40-47.04N,141-46.71E,167,2.878,33.1074,7.99
1075,2019/3/8,17:56,40-46.75N,141-46.80E,167,2.696,33.0718,7.99
1076,2019/3/8,17:57,40-46.46N,141-46.88E,167,2.506,33.0388,8
1077,2019/3/8,17:58,40-46.17N,141-46.97E,167,2.443,33.0027,7.99
1078,2019/3/8,17:59,40-45.88N,141-47.05E,167,2.924,32.9735,7.99
1079,2019/3/8,18:00,40-45.57N,141-47.14E,167,3.101,33.0022,7.99
1080,2019/3/8,18:01,40-45.28N,141-47.23E,166,3.391,33.0348,7.99
1081,2019/3/8,18:02,40-45.02N,141-47.32E,164,4.543,33.0574,7.99
1082,2019/3/8,18:03,40-44.73N,141-47.43E,163,7.264,33.1269,8
1083,2019/3/8,18:04,40-44.44N,141-47.53E,164,7.608,33.5408,7.99
1084,2019/3/8,18:05,40-44.14N,141-47.65E,163,7.669,33.7165,8.01